| time (UTC) | temp C | wind direction | speed KPH | gust KPH | rain 1hr cm | rain 24hr cm | rain mn cm | humidity % | barometer mb |
| 20260904091505 | 18 | 132 | 0.0 | 0.0 | 0.00 | 0.00 | 0.00 | 78 | 1013.0 |
| 20260904084505 | 18 | 130 | 0.0 | 4.8 | 0.00 | 0.00 | 0.00 | 76 | 1013.0 |
| 20260904083005 | 18 | 12 | 0.0 | 0.0 | 0.00 | 0.00 | 0.00 | 76 | 1013.2 |
| 20260904080008 | 18 | 12 | 0.0 | 0.0 | 0.00 | 0.00 | 0.00 | 73 | 1013.2 |
| 20260904074505 | 18 | 12 | 0.0 | 1.6 | 0.00 | 0.00 | 0.00 | 75 | 1013.2 |
| 20260904073006 | 17 | 360 | 1.6 | 8.0 | 0.00 | 0.00 | 0.00 | 75 | 1013.1 |
| 20260904070010 | 18 | 360 | 1.6 | 11.3 | 0.00 | 0.00 | 0.00 | 68 | 1013.5 |
| 20260904064504 | 20 | 360 | 1.6 | 6.4 | 0.00 | 0.00 | 0.00 | 60 | 1013.2 |
| 20260904063004 | 20 | 360 | 0.0 | 0.0 | 0.00 | 0.00 | 0.00 | 59 | 1013.0 |
| 20260904061504 | 20 | 360 | 0.0 | 3.2 | 0.00 | 0.00 | 0.00 | 57 | 1013.0 |
| 20260904060007 | 20 | 360 | 0.0 | 6.4 | 0.00 | 0.00 | 0.00 | 57 | 1013.1 |
| 20260904053004 | 20 | 360 | 0.0 | 0.0 | 0.00 | 0.00 | 0.00 | 59 | 1013.0 |
| 20260904051504 | 20 | 360 | 0.0 | 0.0 | 0.00 | 0.00 | 0.00 | 61 | 1013.0 |
| 20260904050007 | 20 | 360 | 0.0 | 0.0 | 0.00 | 0.00 | 0.00 | 59 | 1013.2 |
| 20260904044504 | 20 | 360 | 0.0 | 0.0 | 0.00 | 0.00 | 0.00 | 56 | 1013.2 |
| 20260904043004 | 20 | 360 | 0.0 | 1.6 | 0.00 | 0.00 | 0.00 | 57 | 1013.3 |
| 20260904041504 | 19 | 360 | 0.0 | 6.4 | 0.00 | 0.00 | 0.00 | 59 | 1013.3 |
| 20260904040007 | 19 | 360 | 0.0 | 1.6 | 0.00 | 0.00 | 0.00 | 57 | 1013.2 |
| 20260904034504 | 20 | 360 | 0.0 | 0.0 | 0.00 | 0.00 | 0.00 | 56 | 1013.1 |
| 20260904033004 | 20 | 360 | 0.0 | 0.0 | 0.00 | 0.00 | 0.00 | 55 | 1013.0 |
| 20260904031504 | 20 | 360 | 0.0 | 0.0 | 0.00 | 0.00 | 0.00 | 53 | 1012.9 |
| 20260904030007 | 20 | 360 | 0.0 | 0.0 | 0.00 | 0.00 | 0.00 | 53 | 1012.7 |
| 20260904024504 | 20 | 360 | 0.0 | 0.0 | 0.00 | 0.00 | 0.00 | 52 | 1012.6 |
| 20260904023004 | 21 | 360 | 0.0 | 0.0 | 0.00 | 0.00 | 0.00 | 51 | 1012.5 |
| 20260904021504 | 21 | 360 | 0.0 | 0.0 | 0.00 | 0.00 | 0.00 | 50 | 1012.3 |
| 20260904020007 | 22 | 360 | 0.0 | 1.6 | 0.00 | 0.00 | 0.00 | 48 | 1012.2 |
| 20260904013004 | 23 | 360 | 1.6 | 11.3 | 0.00 | 0.00 | 0.00 | 45 | 1012.3 |
| 20260904011504 | 23 | 360 | 3.2 | 12.9 | 0.00 | 0.00 | 0.00 | 44 | 1012.3 |
| 20260904004503 | 24 | 360 | 3.2 | 16.1 | 0.00 | 0.00 | 0.00 | 41 | 1012.4 |
| 20260904003003 | 24 | 360 | 3.2 | 14.5 | 0.00 | 0.00 | 0.00 | 42 | 1012.3 |
| 20260904001503 | 25 | 360 | 4.8 | 19.3 | 0.00 | 0.00 | 0.00 | 41 | 1012.3 |
| 20260904000007 | 26 | 360 | 3.2 | 14.5 | 0.00 | 0.00 | 0.00 | 38 | 1012.3 |
| 20260903233003 | 26 | 360 | 6.4 | 24.1 | 0.00 | 0.00 | 0.00 | 40 | 1012.3 |
| 20260903231505 | 27 | 360 | 6.4 | 17.7 | 0.00 | 0.00 | 0.00 | 38 | 1012.4 |
| 20260903230007 | 27 | 360 | 4.8 | 19.3 | 0.00 | 0.00 | 0.00 | 37 | 1012.5 |
| 20260903223003 | 26 | 360 | 4.8 | 16.1 | 0.00 | 0.00 | 0.00 | 38 | 1012.7 |
| 20260903221504 | 27 | 360 | 6.4 | 14.5 | 0.00 | 0.00 | 0.00 | 35 | 1012.9 |
| 20260903220007 | 27 | 360 | 4.8 | 24.1 | 0.00 | 0.00 | 0.00 | 34 | 1013.0 |
| 20260903214503 | 27 | 360 | 4.8 | 16.1 | 0.00 | 0.00 | 0.00 | 40 | 1013.1 |
| 20260903213005 | 27 | 360 | 4.8 | 20.9 | 0.00 | 0.00 | 0.00 | 39 | 1013.3 |
| 20260903211504 | 27 | 360 | 4.8 | 14.5 | 0.00 | 0.00 | 0.00 | 39 | 1013.4 |
| 20260903210007 | 27 | 360 | 4.8 | 19.3 | 0.00 | 0.00 | 0.00 | 39 | 1013.6 |
| 20260903204504 | 26 | 360 | 4.8 | 16.1 | 0.00 | 0.00 | 0.00 | 40 | 1013.7 |
| 20260903201503 | 26 | 360 | 6.4 | 20.9 | 0.00 | 0.00 | 0.00 | 45 | 1013.6 |
| 20260903194503 | 26 | 360 | 3.2 | 16.1 | 0.00 | 0.00 | 0.00 | 44 | 1014.1 |
| 20260903193003 | 25 | 360 | 3.2 | 17.7 | 0.00 | 0.00 | 0.00 | 45 | 1014.2 |
| 20260903191503 | 26 | 360 | 6.4 | 24.1 | 0.00 | 0.00 | 0.00 | 44 | 1014.4 |
| 20260903184503 | 25 | 360 | 3.2 | 17.7 | 0.00 | 0.00 | 0.00 | 46 | 1014.7 |
| 20260903181503 | 24 | 360 | 4.8 | 14.5 | 0.00 | 0.00 | 0.00 | 47 | 1015.2 |
| 20260903180007 | 23 | 360 | 3.2 | 16.1 | 0.00 | 0.00 | 0.00 | 50 | 1015.5 |
| 20260903173003 | 23 | 360 | 4.8 | 12.9 | 0.00 | 0.00 | 0.00 | 47 | 1015.6 |
| 20260903171503 | 23 | 360 | 3.2 | 12.9 | 0.00 | 0.00 | 0.00 | 46 | 1015.4 |
| 20260903170006 | 23 | 360 | 3.2 | 9.7 | 0.00 | 0.00 | 0.00 | 45 | 1015.4 |
| 20260903163004 | 22 | 360 | 1.6 | 8.0 | 0.00 | 0.00 | 0.00 | 44 | 1015.4 |
| 20260903161504 | 22 | 360 | 1.6 | 8.0 | 0.00 | 0.00 | 0.00 | 47 | 1015.5 |
| 20260903160005 | 21 | 123 | 1.6 | 8.0 | 0.00 | 0.00 | 0.00 | 47 | 1015.4 |
| 20260903154502 | 20 | 360 | 0.0 | 6.4 | 0.00 | 0.00 | 0.00 | 48 | 1015.4 |
| 20260903153003 | 20 | 360 | 1.6 | 6.4 | 0.00 | 0.00 | 0.00 | 49 | 1015.5 |
| 20260903151504 | 19 | 100 | 0.0 | 0.0 | 0.00 | 0.00 | 0.00 | 50 | 1015.3 |
| 20260903150005 | 18 | 89 | 0.0 | 0.0 | 0.00 | 0.00 | 0.00 | 52 | 1015.4 |
| 20260903144502 | 18 | 89 | 0.0 | 0.0 | 0.00 | 0.00 | 0.00 | 53 | 1015.3 |
| 20260903143002 | 18 | 89 | 0.0 | 0.0 | 0.00 | 0.00 | 0.00 | 55 | 1015.2 |
| 20260903141502 | 17 | 90 | 0.0 | 3.2 | 0.00 | 0.00 | 0.00 | 58 | 1014.9 |
| 20260903140005 | 17 | 360 | 0.0 | 1.6 | 0.00 | 0.00 | 0.00 | 59 | 1014.9 |
| 20260903134503 | 16 | 360 | 0.0 | 6.4 | 0.00 | 0.00 | 0.00 | 58 | 1014.9 |
| 20260903133002 | 16 | 360 | 0.0 | 0.0 | 0.00 | 0.00 | 0.00 | 59 | 1014.7 |
| 20260903131502 | 16 | 360 | 0.0 | 0.0 | 0.00 | 0.00 | 0.00 | 56 | 1014.6 |
| 20260903130006 | 16 | 360 | 0.0 | 0.0 | 0.00 | 0.00 | 0.00 | 57 | 1014.6 |
| 20260903124502 | 16 | 360 | 0.0 | 0.0 | 0.00 | 0.00 | 0.00 | 57 | 1014.4 |
| 20260903123002 | 16 | 360 | 0.0 | 0.0 | 0.00 | 0.00 | 0.00 | 57 | 1014.3 |
| 20260903120006 | 17 | 360 | 0.0 | 0.0 | 0.00 | 0.00 | 0.00 | 56 | 1014.2 |
| 20260903114502 | 17 | 360 | 0.0 | 0.0 | 0.00 | 0.00 | 0.00 | 56 | 1014.2 |
| 20260903111504 | 17 | 360 | 0.0 | 0.0 | 0.00 | 0.00 | 0.00 | 57 | 1014.0 |
| 20260903110005 | 16 | 360 | 0.0 | 0.0 | 0.00 | 0.00 | 0.00 | 58 | 1014.0 |
| 20260903104502 | 17 | 360 | 0.0 | 0.0 | 0.00 | 0.00 | 0.00 | 58 | 1014.0 |
| 20260903103003 | 17 | 138 | 0.0 | 0.0 | 0.00 | 0.00 | 0.00 | 58 | 1013.9 |
| 20260903100007 | 17 | 138 | 0.0 | 0.0 | 0.00 | 0.00 | 0.00 | 60 | 1014.3 |
| 20260903094502 | 17 | 138 | 0.0 | 0.0 | 0.00 | 0.00 | 0.00 | 62 | 1014.3 |
| 20260903093003 | 17 | 138 | 0.0 | 0.0 | 0.00 | 0.00 | 0.00 | 61 | 1014.4 |